GRZLY41 ETNW-ETNW

Flight info

Callsign GRZLY41
Flight time 0h 38m
Altitude 11000
Route NIE1B/26 NIE Z595 REVLA NT421 WTM STAY1/0020 WTM OPWOT Z612 WSN Z88 HABFU DCT IPKAP WUN ETNW/08 D017NXTACAN/07
Aircraft A400/H-SDE2E3FGHIJ4J5M1RWXY/S

Departure

Time 2026-04-13 19:38
Airport Wunstorf Air Base (ETNW)

Arrival

Time 2026-04-13 20:17
Airport Wunstorf Air Base (ETNW)
Time Latitude Longitude Altitude Speed Heading
2026-04-13 19:24 53.55434 7.84891 6259 ft 232 kts 100°
2026-04-13 19:24 53.55127 7.87596 5528 ft 244 kts 103°
2026-04-13 19:24 53.54694 7.90431 4461 ft 263 kts 106°
2026-04-13 19:25 53.54075 7.93596 4723 ft 294 kts 112°
2026-04-13 19:25 53.53048 7.96559 5970 ft 290 kts 126°
2026-04-13 19:25 53.51887 7.99239 7616 ft 276 kts 128°
2026-04-13 19:25 53.50831 8.01858 9264 ft 262 kts 126°
2026-04-13 19:26 53.49980 8.04358 10278 ft 236 kts 123°
2026-04-13 19:26 53.49238 8.06942 10810 ft 260 kts 120°
2026-04-13 19:26 53.48420 8.09755 10988 ft 272 kts 127°
2026-04-13 19:26 53.47232 8.12091 10998 ft 260 kts 140°
2026-04-13 19:27 53.45839 8.14102 10998 ft 268 kts 146°
2026-04-13 19:27 53.44278 8.16014 11001 ft 286 kts 148°
2026-04-13 19:27 53.42603 8.17895 10997 ft 292 kts 150°
2026-04-13 19:27 53.40894 8.19750 10995 ft 293 kts 150°
2026-04-13 19:28 53.39179 8.21600 10995 ft 294 kts 150°
2026-04-13 19:28 53.37462 8.23467 10993 ft 294 kts 150°
2026-04-13 19:28 53.35751 8.25344 10978 ft 294 kts 149°
2026-04-13 19:28 53.34041 8.27236 10992 ft 295 kts 149°
2026-04-13 19:29 53.32327 8.29141 10997 ft 295 kts 149°
2026-04-13 19:29 53.30616 8.31047 10993 ft 295 kts 149°
2026-04-13 19:29 53.29487 8.32305 10993 ft 295 kts 149°
2026-04-13 19:29 53.27781 8.34204 10993 ft 295 kts 149°
2026-04-13 19:30 53.26074 8.36103 10996 ft 294 kts 149°
2026-04-13 19:30 53.24369 8.37998 10995 ft 295 kts 149°
2026-04-13 19:30 53.22661 8.39892 10996 ft 295 kts 149°
2026-04-13 19:30 53.20956 8.41782 10996 ft 295 kts 149°
2026-04-13 19:31 53.19247 8.43673 10996 ft 295 kts 149°
2026-04-13 19:31 53.17538 8.45563 10993 ft 295 kts 149°
2026-04-13 19:31 53.15826 8.47453 10996 ft 295 kts 149°
2026-04-13 19:31 53.14116 8.49340 10993 ft 295 kts 149°
2026-04-13 19:32 53.12405 8.51226 10992 ft 295 kts 149°
2026-04-13 19:32 53.10696 8.53108 10993 ft 295 kts 149°
2026-04-13 19:32 53.08985 8.54991 10993 ft 295 kts 149°
2026-04-13 19:32 53.07272 8.56873 10993 ft 295 kts 149°
2026-04-13 19:33 53.05585 8.58726 10992 ft 295 kts 149°
2026-04-13 19:33 53.03874 8.60603 10993 ft 295 kts 149°
2026-04-13 19:33 53.02161 8.62481 10993 ft 295 kts 149°
2026-04-13 19:34 52.98731 8.66234 10988 ft 296 kts 149°
2026-04-13 19:34 52.97008 8.68117 10994 ft 296 kts 149°
2026-04-13 19:34 52.95282 8.70001 10993 ft 296 kts 149°
2026-04-13 19:34 52.93558 8.71881 10993 ft 296 kts 149°
2026-04-13 19:35 52.91832 8.73762 10991 ft 297 kts 149°
2026-04-13 19:35 52.90100 8.75647 10992 ft 298 kts 149°
2026-04-13 19:35 52.88367 8.77532 10991 ft 298 kts 149°
2026-04-13 19:35 52.86632 8.79417 10990 ft 298 kts 149°
2026-04-13 19:36 52.84898 8.81300 10990 ft 298 kts 149°
2026-04-13 19:36 52.83186 8.83156 10990 ft 298 kts 149°
2026-04-13 19:36 52.81447 8.85040 10977 ft 298 kts 149°
2026-04-13 19:36 52.79749 8.86881 10516 ft 287 kts 149°
2026-04-13 19:37 52.78074 8.88695 9678 ft 289 kts 149°
2026-04-13 19:37 52.76390 8.90512 8824 ft 289 kts 149°
2026-04-13 19:37 52.74714 8.92319 8021 ft 286 kts 149°
2026-04-13 19:37 52.73063 8.94100 7362 ft 275 kts 149°
2026-04-13 19:38 52.71540 8.95747 7024 ft 254 kts 148°
2026-04-13 19:38 52.70055 8.97346 6971 ft 256 kts 149°
2026-04-13 19:38 52.68599 8.98912 6966 ft 233 kts 149°
2026-04-13 19:38 52.67354 9.00262 6983 ft 202 kts 149°
2026-04-13 19:39 52.66192 9.01513 6981 ft 206 kts 149°
2026-04-13 19:39 52.64932 9.02852 6970 ft 223 kts 149°
2026-04-13 19:39 52.63611 9.04257 6967 ft 228 kts 149°
2026-04-13 19:39 52.62275 9.05682 6973 ft 229 kts 149°
2026-04-13 19:40 52.60954 9.07095 6969 ft 230 kts 149°
2026-04-13 19:40 52.59616 9.08530 6971 ft 230 kts 149°
2026-04-13 19:40 52.58256 9.09985 6969 ft 230 kts 149°
2026-04-13 19:40 52.56928 9.11402 6970 ft 230 kts 150°
2026-04-13 19:41 52.55515 9.12614 6969 ft 228 kts 161°
2026-04-13 19:41 52.53964 9.13050 6968 ft 227 kts 183°
2026-04-13 19:41 52.52476 9.12236 6969 ft 229 kts 212°
2026-04-13 19:42 52.51248 9.07573 6968 ft 244 kts 274°
2026-04-13 19:42 52.51757 9.04882 6970 ft 249 kts 289°
2026-04-13 19:42 52.52539 9.02333 6969 ft 251 kts 296°
2026-04-13 19:42 52.53441 8.99878 6979 ft 252 kts 298°
2026-04-13 19:43 52.54384 8.97450 6974 ft 252 kts 300°
2026-04-13 19:43 52.55589 8.95351 6975 ft 256 kts 321°
2026-04-13 19:43 52.57216 8.94160 6964 ft 259 kts 349°
2026-04-13 19:43 52.58992 8.94417 6975 ft 259 kts 23°
2026-04-13 19:44 52.60384 8.96180 6975 ft 253 kts 58°
2026-04-13 19:44 52.60965 8.98817 6975 ft 244 kts 90°
2026-04-13 19:44 52.60689 9.01508 6976 ft 238 kts 112°
2026-04-13 19:44 52.60038 9.03994 6965 ft 236 kts 121°
2026-04-13 19:45 52.59231 9.06340 6967 ft 235 kts 124°
2026-04-13 19:45 52.58393 9.08649 6968 ft 235 kts 124°
2026-04-13 19:45 52.57556 9.10957 6966 ft 232 kts 124°
2026-04-13 19:45 52.56754 9.13176 6951 ft 220 kts 124°
2026-04-13 19:46 52.56178 9.15424 6983 ft 212 kts 106°
2026-04-13 19:46 52.56212 9.17838 7045 ft 216 kts 81°
2026-04-13 19:46 52.56861 9.20060 7023 ft 222 kts 50°
2026-04-13 19:46 52.58126 9.21519 6869 ft 225 kts 34°
2026-04-13 19:47 52.59375 9.23007 6771 ft 223 kts 44°
2026-04-13 19:47 52.60439 9.24841 6653 ft 221 kts 56°
2026-04-13 19:47 52.61240 9.26968 6675 ft 219 kts 64°
2026-04-13 19:47 52.61976 9.29156 6710 ft 216 kts 65°
2026-04-13 19:48 52.62666 9.31359 6740 ft 215 kts 68°
2026-04-13 19:48 52.63247 9.33627 6762 ft 214 kts 75°
2026-04-13 19:48 52.63643 9.35976 6758 ft 212 kts 82°
2026-04-13 19:48 52.63943 9.38356 6736 ft 211 kts 84°
2026-04-13 19:49 52.64189 9.40734 6629 ft 209 kts 88°
2026-04-13 19:49 52.64248 9.43114 6478 ft 206 kts 97°
2026-04-13 19:49 52.64129 9.45461 6397 ft 204 kts 101°
2026-04-13 19:49 52.63920 9.47768 6340 ft 203 kts 105°
2026-04-13 19:50 52.63638 9.50050 6313 ft 202 kts 106°
2026-04-13 19:50 52.63297 9.52304 6235 ft 202 kts 111°
2026-04-13 19:50 52.62810 9.54460 6183 ft 200 kts 117°
2026-04-13 19:50 52.62211 9.56488 6171 ft 198 kts 122°
2026-04-13 19:51 52.61524 9.58469 6148 ft 200 kts 124°
2026-04-13 19:51 52.60777 9.60396 6172 ft 200 kts 127°
2026-04-13 19:51 52.59975 9.62250 6201 ft 200 kts 130°
2026-04-13 19:51 52.59070 9.63955 6023 ft 196 kts 140°
2026-04-13 19:52 52.58064 9.65474 5730 ft 196 kts 141°
2026-04-13 19:52 52.56977 9.66815 5327 ft 196 kts 147°
2026-04-13 19:52 52.55825 9.67997 5001 ft 195 kts 152°
2026-04-13 19:52 52.54588 9.69006 4389 ft 202 kts 156°
2026-04-13 19:53 52.53296 9.69918 3666 ft 196 kts 158°
2026-04-13 19:53 52.52019 9.70460 3061 ft 184 kts 181°
2026-04-13 19:53 52.50907 9.69571 2781 ft 184 kts 221°
2026-04-13 19:53 52.50031 9.68028 2699 ft 185 kts 230°
2026-04-13 19:54 52.49434 9.66155 2679 ft 187 kts 249°
2026-04-13 19:54 52.49138 9.64076 2606 ft 187 kts 256°
2026-04-13 19:54 52.48884 9.61977 2430 ft 187 kts 256°
2026-04-13 19:54 52.48635 9.59912 2127 ft 187 kts 256°
2026-04-13 19:55 52.48373 9.57884 1833 ft 174 kts 254°
2026-04-13 19:55 52.48054 9.55989 1670 ft 165 kts 251°
2026-04-13 19:55 52.47749 9.54344 1572 ft 139 kts 250°
2026-04-13 19:55 52.47458 9.52888 1388 ft 130 kts 249°
2026-04-13 19:56 52.47148 9.51488 1230 ft 134 kts 247°
2026-04-13 19:56 52.46806 9.50040 1033 ft 139 kts 249°
2026-04-13 19:56 52.46461 9.48539 729 ft 141 kts 249°
2026-04-13 19:56 52.46165 9.47019 496 ft 137 kts 255°
2026-04-13 19:57 52.45986 9.45522 302 ft 129 kts 261°
2026-04-13 19:57 52.45859 9.44128 193 ft 117 kts 261°
2026-04-13 19:57 52.45730 9.42773 283 ft 146 kts 261°
2026-04-13 19:57 52.45566 9.41027 848 ft 156 kts 261°
2026-04-13 19:58 52.45395 9.39233 1511 ft 163 kts 259°
2026-04-13 19:58 52.45218 9.37251 2023 ft 199 kts 260°
2026-04-13 19:58 52.45014 9.34806 2796 ft 231 kts 260°
2026-04-13 19:58 52.44808 9.32135 3542 ft 237 kts 260°
2026-04-13 19:59 52.44604 9.29418 4350 ft 240 kts 260°
2026-04-13 19:59 52.44574 9.26698 4829 ft 241 kts 279°
2026-04-13 19:59 52.45307 9.24229 4963 ft 245 kts 309°
2026-04-13 19:59 52.46710 9.22682 4970 ft 246 kts 341°
2026-04-13 20:00 52.48398 9.22516 4963 ft 245 kts 13°
2026-04-13 20:00 52.49882 9.23770 4966 ft 240 kts 45°
2026-04-13 20:00 52.50884 9.25931 4967 ft 238 kts 61°
2026-04-13 20:00 52.51708 9.28285 4968 ft 238 kts 63°
2026-04-13 20:01 52.52512 9.30665 4966 ft 238 kts 64°
2026-04-13 20:01 52.53311 9.33043 4965 ft 238 kts 64°
2026-04-13 20:01 52.54110 9.35421 4968 ft 238 kts 64°
2026-04-13 20:01 52.54908 9.37802 4997 ft 238 kts 64°
2026-04-13 20:02 52.55708 9.40187 4990 ft 238 kts 64°
2026-04-13 20:02 52.56505 9.42569 4993 ft 238 kts 64°
2026-04-13 20:02 52.57303 9.44953 4991 ft 238 kts 64°
2026-04-13 20:02 52.58102 9.47337 4988 ft 238 kts 64°
2026-04-13 20:03 52.58899 9.49718 4985 ft 238 kts 64°
2026-04-13 20:03 52.59697 9.52103 4987 ft 238 kts 64°
2026-04-13 20:03 52.60495 9.54487 4983 ft 238 kts 64°
2026-04-13 20:03 52.61117 9.56976 4984 ft 234 kts 82°
2026-04-13 20:04 52.61224 9.59631 4989 ft 232 kts 92°
2026-04-13 20:04 52.61205 9.62287 4983 ft 232 kts 94°
2026-04-13 20:04 52.61172 9.64940 4980 ft 232 kts 94°
2026-04-13 20:04 52.61137 9.67597 4991 ft 232 kts 94°
2026-04-13 20:05 52.61102 9.70255 4988 ft 232 kts 94°
2026-04-13 20:05 52.61077 9.72899 4991 ft 231 kts 94°
2026-04-13 20:05 52.61054 9.75509 4838 ft 225 kts 94°
2026-04-13 20:05 52.61030 9.78085 4440 ft 226 kts 94°
2026-04-13 20:06 52.61005 9.80641 4061 ft 226 kts 94°
2026-04-13 20:06 52.60981 9.83229 3674 ft 225 kts 94°
2026-04-13 20:06 52.60960 9.85795 3252 ft 223 kts 94°
2026-04-13 20:06 52.60643 9.88246 3014 ft 217 kts 121°
2026-04-13 20:07 52.59578 9.89923 2992 ft 214 kts 154°
2026-04-13 20:07 52.58142 9.90554 2939 ft 210 kts 171°
2026-04-13 20:07 52.56744 9.90823 2701 ft 193 kts 174°
2026-04-13 20:07 52.55473 9.91025 2496 ft 180 kts 174°
2026-04-13 20:08 52.54249 9.91212 2125 ft 175 kts 174°
2026-04-13 20:08 52.53034 9.91389 1997 ft 177 kts 174°
2026-04-13 20:08 52.51808 9.91534 1988 ft 177 kts 180°
2026-04-13 20:08 52.50673 9.90807 1993 ft 180 kts 218°
2026-04-13 20:09 52.49827 9.89263 1989 ft 182 kts 229°
2026-04-13 20:09 52.49283 9.87385 1991 ft 185 kts 254°
2026-04-13 20:09 52.49071 9.85281 1991 ft 186 kts 261°
2026-04-13 20:09 52.48948 9.83218 1987 ft 169 kts 263°
2026-04-13 20:10 52.48863 9.81443 2025 ft 146 kts 263°
2026-04-13 20:10 52.48790 9.79887 2020 ft 132 kts 263°
2026-04-13 20:10 52.48718 9.78412 1996 ft 127 kts 262°
2026-04-13 20:10 52.48649 9.76981 1993 ft 125 kts 262°
2026-04-13 20:11 52.48580 9.75559 1990 ft 124 kts 262°
2026-04-13 20:11 52.48499 9.74144 1992 ft 124 kts 260°
2026-04-13 20:11 52.48393 9.72751 1993 ft 124 kts 259°
2026-04-13 20:11 52.48278 9.71345 1993 ft 123 kts 259°
2026-04-13 20:12 52.48160 9.69942 1991 ft 124 kts 259°
2026-04-13 20:12 52.48040 9.68541 1997 ft 124 kts 259°
2026-04-13 20:12 52.47918 9.67138 1994 ft 124 kts 259°
2026-04-13 20:12 52.47795 9.65742 1998 ft 124 kts 259°
2026-04-13 20:13 52.47670 9.64341 1997 ft 125 kts 259°
2026-04-13 20:13 52.47546 9.62941 1995 ft 125 kts 258°
2026-04-13 20:13 52.47420 9.61536 1995 ft 126 kts 258°
2026-04-13 20:13 52.47295 9.60134 1993 ft 125 kts 258°
2026-04-13 20:14 52.47169 9.58722 1918 ft 126 kts 258°
2026-04-13 20:14 52.47031 9.57288 1745 ft 130 kts 257°
2026-04-13 20:14 52.46887 9.55716 1695 ft 140 kts 259°
2026-04-13 20:14 52.46740 9.54140 1522 ft 137 kts 260°
2026-04-13 20:15 52.46625 9.52622 1263 ft 129 kts 262°
2026-04-13 20:15 52.46524 9.51200 1091 ft 123 kts 262°
2026-04-13 20:15 52.46390 9.49821 884 ft 122 kts 259°
2026-04-13 20:15 52.46261 9.48461 687 ft 119 kts 261°
2026-04-13 20:16 52.46129 9.47120 474 ft 121 kts 261°
2026-04-13 20:16 52.46006 9.45749 331 ft 120 kts 261°
2026-04-13 20:16 52.45885 9.44441 216 ft 113 kts 261°
2026-04-13 20:16 52.45785 9.43346 200 ft 62 kts 262°
2026-04-13 20:17 52.45751 9.42940 195 ft 42 kts 262°
2026-04-13 20:17 52.45706 9.42424 185 ft 42 kts 262°
2026-04-13 20:17 52.45671 9.42021 193 ft 29 kts 261°
2026-04-13 20:17 52.45668 9.41823 187 ft 5 kts 306°
2026-04-13 20:18 52.45713 9.41792 193 ft 8 kts 345°
2026-04-13 20:18 52.45767 9.41776 191 ft 8 kts 350°
2026-04-13 20:18 52.45825 9.41760 185 ft 0 kts 350°
2026-04-13 20:19 52.45836 9.41761 193 ft 2 kts 11°
2026-04-13 20:19 52.45840 9.41778 183 ft 5 kts 67°
2026-04-13 20:19 52.45855 9.41890 181 ft 10 kts 83°
2026-04-13 20:19 52.45865 9.42006 184 ft 10 kts 81°
2026-04-13 20:20 52.45878 9.42125 184 ft 11 kts 80°
2026-04-13 20:20 52.45891 9.42251 181 ft 12 kts 81°
2026-04-13 20:20 52.45904 9.42387 182 ft 12 kts 81°
2026-04-13 20:20 52.45915 9.42451 185 ft 1 kts 39°
2026-04-13 20:21 52.45931 9.42454 182 ft 4 kts 10°
2026-04-13 20:21 52.45953 9.42460 183 ft 1 kts
2026-04-13 20:21 52.45958 9.42452 184 ft 1 kts 321°
2026-04-13 20:21 52.45963 9.42426 189 ft 5 kts 282°
2026-04-13 20:22 52.45961 9.42374 183 ft 6 kts 262°
2026-04-13 20:22 52.45959 9.42356 181 ft 0 kts 262°